Regional Weather Roundup
Issued by NWS

Home | Current Version | Previous Version | Graphics & Text | Print | Product List | Glossary On
Versions: 1 2 3 4 5 6 7 8 9 10 11 12 13 14 15 16 17 18 19 20 21 22 23 24 25 26 27 28 29 30 31 32 33 34 35 36 37 38 39 40 41 42 43 44 45 46 47 48 49 50
000
ASUS43 KMPX 230910
RWRMN
WEATHER ROUNDUP FOR MINNESOTA
NATIONAL WEATHER SERVICE TWIN CITIES/CHANHASSEN MN
400 AM CDT TUE AUG 23 2016


NOTE: "FAIR" INDICATES FEW OR NO CLOUDS BELOW 12,000 FEET WITH NO
SIGNIFICANT WEATHER AND/OR OBSTRUCTIONS TO VISIBILITY. N/A MEANS
CURRENT SKY AND/OR WEATHER CONDITIONS ARE NOT AVAILABLE.

MNZ060>063-068>070-231000-
   Twin Cities Metro

CITY           SKY/WX    TMP DP  RH WIND       PRES   REMARKS
TWIN CITIES    CLOUDY    72  59  63 S10G22    29.94S
ST PAUL        CLOUDY    67  60  78 SE8       29.95S
CRYSTAL        CLOUDY    70  58  65 S13G20    29.91S
BLAINE         CLEAR     72  61  68 S10G20    29.93S
LAKEVILLE      PTCLDY    66  61  82 S8        29.95S
EDEN PRAIRIE   CLOUDY    70  60  70 S12       29.92S
LAKEVILLE      PTCLDY    66  61  82 S8        29.95S
SOUTH ST PAUL  CLOUDY    68  59  73 S6        29.95S
LAKE ELMO      FAIR      66  61  82 S9        29.97S
$$
MNZ001>005-007-008-013>017-022>024-027-028-231000-
   Northwest Minnesota

CITY           SKY/WX    TMP DP  RH WIND       PRES   REMARKS
BEMIDJI        CLOUDY    69  63  80 S7        29.80S
HALLOCK        CLOUDY    70  66  88 SE7       29.65R
ROSEAU         CLOUDY    64  61  88 E5        29.72F
WARROAD        CLOUDY    66  63  88 E5        29.75S
THIEF RVR FALL CLOUDY    71  66  84 S10       29.73F
CROOKSTON      CLOUDY    73  66  78 S17       29.70F
FOSSTON        CLOUDY    68  63  83 S6        29.77S
DETROIT LAKES  CLEAR     70  61  73 S10       29.78S
MOORHEAD       CLOUDY    70  63  78 S17G23    29.70S
PARK RAPIDS    CLEAR     67  61  81 SE9       29.81S
MAHNOMEN       FAIR      69  63  79 S8        29.75S
$$
MNZ006-009>011-018-025>026-231000-
   North Central Minnesota

CITY           SKY/WX    TMP DP  RH WIND       PRES   REMARKS
BAUDETTE       CLOUDY    65  63  93 SE6       29.77R
FLAG ISLAND    CLOUDY    70  66  88 S5        29.76R FOG
INTL FALLS     CLEAR     63  62  97 SE3       29.81R
WASKISH        CLOUDY    70  64  83 SE3       29.78S
BIG FORK       CLEAR     66  63  88 S7        29.84R
LONGVILLE      CLEAR     68  63  83 S12G17    29.84S
GRAND RAPIDS   CLEAR     66  62  87 S10       29.87S
CRANE LAKE     CLEAR     63  61  94 S3        29.85S
ORR            CLEAR     64  59  82 CALM      29.83R
COOK           CLEAR     66  61  82 S5        29.87R
WALKER         FAIR      68  61  78 S7        29.81S
$$
MNZ012-019>021-037-231000-
   Northeast Minnesota

CITY           SKY/WX    TMP DP  RH WIND       PRES   REMARKS
DULUTH         CLEAR     67  61  81 SW13      29.91R
ELY            CLEAR     66  61  82 SW7       29.89R
HIBBING        CLEAR     62  60  93 SE5       29.87S
EVELETH        CLEAR     63  59  88 CALM      29.90S
DULUTH HARBOR  CLEAR     70  63  78 SW8       29.90R
TWO HARBORS    CLEAR     66  63  88 SW3       29.89S
SILVER BAY     CLEAR     61  57  88 CALM      29.90R
GRAND MARAIS     N/A     63  61  93 CALM      29.90R
G MARAIS ARPRT CLEAR     61  57  88 S5        29.94S
$$
MNZ029>031-032-039>041-046>048-054>057-064-231000-
   West Central Minnesota

CITY           SKY/WX    TMP DP  RH WIND       PRES   REMARKS
FERGUS FALLS     N/A     70  61  73 S16       29.77S
WHEATON        PTCLDY    70  63  78 SE9       29.76S
MORRIS         CLOUDY    66  63  88 SE10      29.79S
ALEXANDRIA     CLOUDY    68  60  75 S16       29.84S
ELBOW LAKE     FAIR      66  62  86 SE16G24   29.78S
WADENA         CLEAR     64  61  88 S7        29.81S
GLENWOOD       CLOUDY    66  61  82 S12       29.85R
APPLETON       PTCLDY    70  59  68 S10       29.80S
BENSON         CLEAR     66  59  77 S7        29.82F
ORTONVILLE     PTCLDY    70  59  68 S8        29.78S
MADISON        CLOUDY    70  57  64 S17       29.80S
WILLMAR        FAIR      68  61  77 S5        29.87S
$$
MNZ033>034-036-042>043-049>051-058-059-231000-
   Central Minnesota

CITY           SKY/WX    TMP DP  RH WIND       PRES   REMARKS
ST CLOUD       CLEAR     67  61  81 S14       29.88F
SAUK CENTRE    FAIR      67  60  79 S13       29.85S
PAYNESVILLE    CLEAR     67  59  75 S13       29.87S
AITKIN         CLEAR     70  57  64 S7        29.86S
PINE RIVER     CLEAR     66  61  82 SE7       29.88S
BRAINERD       CLEAR     66  60  81 S10       29.86S
STAPLES        CLEAR     64  59  82 S8        29.84R
LONG PRAIRIE   FAIR      66  59  77 SE10G17   29.85F
LITTLE FALLS   CLEAR     68  57  68 S9        29.86F
LITCHFIELD     CLOUDY    68  63  83 S6        29.89S
BUFFALO        CLOUDY    69  59  71 S12G18    29.91F
MAPLE LAKE     CLOUDY    68  62  80 S9        29.91S
HUTCHINSON     CLOUDY    67  63  85 S8        29.91F
$$
MNZ037-044-045-052-053-231000-
   East Central Minnesota

CITY           SKY/WX    TMP DP  RH WIND       PRES   REMARKS
PRINCETON      CLEAR     72  61  68 S13       29.90F
MORA           CLEAR     64  59  82 S7        29.92S
CAMBRIDGE      CLEAR     72  57  60 S9        29.90S
RUSH CITY      PTCLDY    64  60  86 S6        29.92F
MOOSE LAKE     CLEAR     64  59  82 S5        29.89S
HINCKLEY       FAIR      63  61  94 SE5       29.93R
CLOQUET        CLEAR     64  57  77 S8        29.91R
MCGREGOR       CLEAR     66  61  82 S9        29.89S
$$
MNZ071>073-080-081-089-090-097-098-231000-
   Southwest Minnesota

CITY           SKY/WX    TMP DP  RH WIND       PRES   REMARKS
MONTEVIDEO     CLOUDY    68  61  77 SW12      29.85S
GRANITE FALLS  CLOUDY    70  61  75 S12G18    29.86S
CANBY          MOCLDY    71  59  66 SW17G26   29.82S
MARSHALL       MOCLDY    70  60  70 S23G31    29.84S
REDWOOD FALLS  PTCLDY    68  60  75 S17       29.87S
OLIVIA         PTCLDY    70  61  73 S9        29.87S
PIPESTONE      PTCLDY    66  61  82 S13G20    29.89S
WINDOM         CLOUDY    68  61  77 S16       29.92F
WORTHINGTON    PTCLDY    66  61  84 S14       29.93S
JACKSON        CLOUDY    66  59  77 S15       29.95F
TRACY          PTCLDY    69  61  75 S15G22    29.88S
SLAYTON        CLOUDY    66  61  82 S15G23    29.91F
$$
MNZ065>067-074>077-082>085-091>093-231000-
   South Central Minnesota

CITY           SKY/WX    TMP DP  RH WIND       PRES   REMARKS
MANKATO        PTCLDY    66  57  72 S13G21    29.95S
NEW ULM          N/A     66  61  82 S14       29.91S
ST JAMES       MOCLDY    63  55  77 S12       29.94S
GLENCOE        MOCLDY    68  64  86 S8        29.91S
FARIBAULT      PTCLDY    66  61  82 S9        29.97F
OWATONNA       CLEAR     64  57  77 S9        29.98F
WASECA         CLEAR     63  57  82 S12       29.98F
ALBERT LEA     PTCLDY    64  59  82 S9        30.00F
$$
MNZ078>079-086>088-094>096-231000-
   Southeast Minnesota

CITY           SKY/WX    TMP DP  RH WIND       PRES   REMARKS
ROCHESTER      CLEAR     63  60  90 S10       30.03S
RED WING       PTCLDY    70  57  64 SW9       29.97S
STANTON        PTCLDY    66  59  77 S7        29.96S
DODGE CENTER   CLEAR     64  57  77 S14       30.00F
WINONA         PTCLDY    70  61  73 SW3       30.03R
AUSTIN         CLEAR     63  57  82 S9        30.01F
PRESTON        CLEAR     62  58  86 S8        30.05S
$$
ABBREVIATIONS USED IN REMARKS
   TC - TEMPERATURES IN CELSIUS
  WCI - WIND CHILL INDEX
   HX - HEAT INDEX
  VSB - VISIBILITY
$$




USA.gov is the U.S. government's official web portal to all federal, state and local government web resources and services.